When you browse on this site, cookies collect data to enhance your experience and personalize the content and advertising you see.
Visit our Privacy Policy to learn more. By continuing to use the site, you agree to this use of cookies and data.
  • In Czech Republic
  • List of Countries
  • For 7 days
  • Water Temperature
  • Weather Map
  • Weather Widgets
  • user-avatar
    Login

    Hourly Weather Kaprun

    Today, 18 January, Saturday

    Time Temperature Precipitation Wind Pressure Humidity
    00:00 -7°C° 0 mm 1 mps 595 mmHg 82%
    01:00 -6°C° 0 mm 1 mps 595 mmHg 82%
    02:00 -7°C° 0.1 mm 1 mps 595 mmHg 85%
    03:00 -7°C° 0.1 mm 1 mps 595 mmHg 88%
    04:00 -7°C° 0.1 mm 1 mps 595 mmHg 92%
    05:00 -6°C° 0.6 mm 1 mps 595 mmHg 93%
    06:00 -6°C° 0.6 mm 1 mps 596 mmHg 94%
    07:00 -6°C° 0 mm 1 mps 597 mmHg 95%
    08:00 -6°C° 0.8 mm 2 mps 597 mmHg 95%
    09:00 -6°C° 0.8 mm 2 mps 597 mmHg 94%
    10:00 -7°C° 0.8 mm 3 mps 597 mmHg 94%
    11:00 -6°C° 0.2 mm 2 mps 597 mmHg 92%
    12:00 -6°C° 0.2 mm 2 mps 597 mmHg 89%
    13:00 -6°C° 0.2 mm 2 mps 597 mmHg 87%
    14:00 -6°C° 0.4 mm 2 mps 597 mmHg 89%
    15:00 -7°C° 0.4 mm 2 mps 597 mmHg 92%
    16:00 -7°C° 0.4 mm 2 mps 596 mmHg 95%
    17:00 -8°C° 0.4 mm 2 mps 596 mmHg 95%
    18:00 -8°C° 0.4 mm 2 mps 597 mmHg 95%
    19:00 -9°C° 0.4 mm 2 mps 597 mmHg 95%
    20:00 -10°C° 0.1 mm 2 mps 596 mmHg 93%
    21:00 -9°C° 0.1 mm 1 mps 596 mmHg 92%
    22:00 -10°C° 0.1 mm 1 mps 596 mmHg 90%
    23:00 -10°C° 0 mm 1 mps 596 mmHg 90%

    Tomorrow, 19 January, Sunday

    Time Temperature Precipitation Wind Pressure Humidity
    00:00 -11°C° 0 mm 1 mps 596 mmHg 89%
    01:00 -11°C° 0 mm 1 mps 596 mmHg 88%
    02:00 -11°C° 0.1 mm 1 mps 596 mmHg 89%
    03:00 -12°C° 0.1 mm 1 mps 596 mmHg 90%
    04:00 -12°C° 0.1 mm 1 mps 596 mmHg 91%
    05:00 -12°C° 0.1 mm 1 mps 596 mmHg 92%
    06:00 -12°C° 0.1 mm 1 mps 596 mmHg 93%
    07:00 -12°C° 0.1 mm 1 mps 596 mmHg 94%
    08:00 -11°C° 0.1 mm 1 mps 597 mmHg 93%
    09:00 -13°C° 0.1 mm 2 mps 598 mmHg 92%
    10:00 -12°C° 0.1 mm 2 mps 598 mmHg 91%
    11:00 -10°C° 0.1 mm 2 mps 599 mmHg 89%
    12:00 -10°C° 0.1 mm 2 mps 599 mmHg 86%
    13:00 -9°C° 0.1 mm 2 mps 599 mmHg 84%
    14:00 -10°C° 0.1 mm 2 mps 599 mmHg 87%
    15:00 -10°C° 0.1 mm 2 mps 599 mmHg 90%
    16:00 -12°C° 0.1 mm 2 mps 599 mmHg 93%
    17:00 -13°C° 0.1 mm 2 mps 600 mmHg 93%
    18:00 -14°C° 0.1 mm 2 mps 600 mmHg 94%
    19:00 -12°C° 0.1 mm 1 mps 600 mmHg 95%
    20:00 -13°C° 0 mm 1 mps 600 mmHg 94%
    21:00 -13°C° 0 mm 1 mps 600 mmHg 94%
    22:00 -14°C° 0 mm 1 mps 601 mmHg 94%
    23:00 -14°C° 0 mm 1 mps 601 mmHg 93%

    Day after tomorrow, 20 January, Monday

    Time Temperature Precipitation Wind Pressure Humidity
    00:00 -14°C° 0 mm 1 mps 601 mmHg 92%
    01:00 -15°C° 0 mm 1 mps 601 mmHg 91%
    02:00 -15°C° 0 mm 1 mps 601 mmHg 89%
    03:00 -15°C° 0 mm 1 mps 601 mmHg 86%
    04:00 -17°C° 0 mm 2 mps 601 mmHg 84%
    05:00 -15°C° 0 mm 1 mps 601 mmHg 82%
    06:00 -15°C° 0 mm 1 mps 602 mmHg 80%
    07:00 -15°C° 0 mm 1 mps 602 mmHg 78%
    08:00 -13°C° 0 mm 1 mps 603 mmHg 76%
    09:00 -12°C° 0 mm 1 mps 604 mmHg 75%
    10:00 -10°C° 0 mm 1 mps 605 mmHg 73%
    11:00 -9°C° 0 mm 1 mps 605 mmHg 71%
    12:00 -8°C° 0 mm 1 mps 606 mmHg 68%
    13:00 -6°C° 0 mm 1 mps 606 mmHg 65%
    14:00 -7°C° 0 mm 1 mps 606 mmHg 68%
    15:00 -7°C° 0 mm 1 mps 606 mmHg 70%
    16:00 -8°C° 0 mm 1 mps 605 mmHg 73%
    17:00 -8°C° 0 mm 1 mps 605 mmHg 69%
    18:00 -10°C° 0 mm 2 mps 605 mmHg 64%
    19:00 -12°C° 0 mm 2 mps 605 mmHg 60%
    20:00 -10°C° 0 mm 2 mps 606 mmHg 57%
    21:00 -10°C° 0 mm 2 mps 606 mmHg 54%
    22:00 -9°C° 0 mm 2 mps 606 mmHg 51%
    23:00 -9°C° 0 mm 2 mps 606 mmHg 48%

    21 January, Tuesday

    Time Temperature Precipitation Wind Pressure Humidity
    00:00 -9°C° 0 mm 2 mps 606 mmHg 46%
    01:00 -8°C° 0 mm 2 mps 606 mmHg 43%
    02:00 -8°C° 0 mm 2 mps 606 mmHg 41%
    03:00 -8°C° 0 mm 2 mps 606 mmHg 39%
    04:00 -8°C° 0 mm 2 mps 606 mmHg 37%
    05:00 -8°C° 0 mm 2 mps 606 mmHg 36%
    06:00 -8°C° 0 mm 2 mps 606 mmHg 35%
    07:00 -8°C° 0 mm 2 mps 605 mmHg 33%
    08:00 -6°C° 0 mm 2 mps 606 mmHg 38%
    09:00 -5°C° 0 mm 2 mps 607 mmHg 42%
    10:00 -3°C° 0 mm 2 mps 607 mmHg 47%
    11:00 0°C° 0 mm 1 mps 607 mmHg 54%
    12:00 +1°C° 0 mm 1 mps 607 mmHg 60%
    13:00 +2°C° 0 mm 1 mps 607 mmHg 67%
    14:00 +1°C° 0 mm 1 mps 607 mmHg 61%
    15:00 -1°C° 0 mm 1 mps 606 mmHg 55%
    16:00 -2°C° 0 mm 1 mps 605 mmHg 48%
    17:00 -3°C° 0 mm 1 mps 604 mmHg 44%
    18:00 -6°C° 0 mm 2 mps 604 mmHg 39%
    19:00 -7°C° 0 mm 2 mps 604 mmHg 34%
    20:00 -7°C° 0 mm 2 mps 604 mmHg 33%
    21:00 -7°C° 0 mm 2 mps 604 mmHg 32%
    22:00 -7°C° 0 mm 2 mps 604 mmHg 30%
    23:00 -7°C° 0 mm 2 mps 603 mmHg 30%

    22 January, Wednesday

    Time Temperature Precipitation Wind Pressure Humidity
    00:00 -7°C° 0 mm 2 mps 603 mmHg 29%
    01:00 -6°C° 0 mm 2 mps 603 mmHg 29%
    02:00 -4°C° 0 mm 1 mps 603 mmHg 28%
    03:00 -4°C° 0 mm 1 mps 603 mmHg 27%
    04:00 -4°C° 0 mm 1 mps 603 mmHg 27%
    05:00 -4°C° 0 mm 1 mps 603 mmHg 27%
    06:00 -4°C° 0 mm 1 mps 602 mmHg 26%
    07:00 -4°C° 0 mm 1 mps 602 mmHg 26%
    08:00 -2°C° 0 mm 1 mps 603 mmHg 32%
    09:00 -1°C° 0 mm 1 mps 604 mmHg 37%
    10:00 0°C° 0 mm 1 mps 604 mmHg 42%
    11:00 +1°C° 0 mm 1 mps 604 mmHg 52%
    12:00 +2°C° 0 mm 1 mps 604 mmHg 62%
    13:00 +2°C° 0 mm 0 mps 604 mmHg 71%
    14:00 +1°C° 0 mm 1 mps 603 mmHg 65%
    15:00 0°C° 0 mm 1 mps 603 mmHg 59%
    16:00 -1°C° 0 mm 1 mps 602 mmHg 52%
    17:00 -2°C° 0 mm 1 mps 602 mmHg 46%
    18:00 -3°C° 0 mm 1 mps 601 mmHg 39%
    19:00 -4°C° 0 mm 1 mps 601 mmHg 32%
    20:00 -4°C° 0 mm 1 mps 601 mmHg 31%
    21:00 -4°C° 0 mm 1 mps 601 mmHg 30%
    22:00 -4°C° 0 mm 1 mps 601 mmHg 29%
    23:00 -4°C° 0 mm 1 mps 601 mmHg 28%

    23 January, Thursday

    Time Temperature Precipitation Wind Pressure Humidity
    00:00 -4°C° 0 mm 1 mps 601 mmHg 27%
    01:00 -4°C° 0 mm 1 mps 601 mmHg 26%
    02:00 -4°C° 0 mm 1 mps 601 mmHg 26%
    03:00 -4°C° 0 mm 1 mps 600 mmHg 26%
    04:00 -4°C° 0 mm 1 mps 600 mmHg 26%
    05:00 -4°C° 0 mm 1 mps 600 mmHg 28%
    06:00 -7°C° 0 mm 2 mps 600 mmHg 29%
    07:00 -7°C° 0 mm 2 mps 600 mmHg 31%
    08:00 -5°C° 0 mm 2 mps 601 mmHg 36%
    09:00 -4°C° 0 mm 2 mps 601 mmHg 42%
    10:00 -3°C° 0 mm 2 mps 602 mmHg 47%
    11:00 0°C° 0 mm 1 mps 602 mmHg 55%
    12:00 +1°C° 0 mm 1 mps 602 mmHg 63%
    13:00 +1°C° 0 mm 0 mps 603 mmHg 72%
    14:00 0°C° 0 mm 0 mps 602 mmHg 69%
    15:00 -1°C° 0 mm 0 mps 601 mmHg 65%
    16:00 -2°C° 0 mm 0 mps 601 mmHg 62%
    17:00 -3°C° 0 mm 0 mps 600 mmHg 57%
    18:00 -3°C° 0 mm 1 mps 600 mmHg 52%
    19:00 -4°C° 0 mm 1 mps 600 mmHg 47%
    20:00 -4°C° 0 mm 1 mps 600 mmHg 45%
    21:00 -4°C° 0 mm 1 mps 600 mmHg 42%
    22:00 -4°C° 0 mm 1 mps 600 mmHg 40%
    23:00 -4°C° 0 mm 1 mps 600 mmHg 39%
    Show more